TEN-KOH (43677 NORAD) Tracking and Keplerian Element Data

This shows tracking and keplerian element data for the satellite.

Feedback or suggestion? Click here.




ElementValue
Catalog43677
NameTEN-KOH
Epoch Orbit261
Epoch Day319.81119517
Epoch Year2018
RAAN70.2018
Inclination97.8367
Eccentricity0.0014499
Argument of Perigee272.208
Mean Anonmoly87.7477
Mean Motion14.90097621
Decay Rate7.52E-06
L11 43677U 18084G 18319.81119517 .00000752 00000-0 83572-4 0 9996
L22 43677 97.8367 70.2018 0014499 272.2080 87.7477 14.90097621 2613

Live tracking and technical data element details for TEN-KOH (NORAD 43677). TEN-KOH can be tracked NOW for your location showing map with azimuth and elevation plus other details from your city location.

Track the satellite on the map from your city or location and see movement details for azimuth, elevation, latitude, longitude, range, height, and movement on the map or in text.







IsCatalogInMostPopularTable: catalog: 43677, numindb: 7
Update: records affected: 1



GetName: 43677 TEN-KOH

Hit Count: updated at: Sat, 17 Nov 2018 02:49:58 GMT